レモン彗星

C/2016 X1 ( Lemmon )

English version
Home page
Updated on May 21, 2018

---------------------------------------------------------------------

・ プロフィール

発見日 2016年12月8日
発見光度 20.1等
発見者 G. J. Leonard (Mount Lemmon)

・ 写真集

・ 軌道要素

Epoch 2019 Apr. 27.0 TT = JDT 2458600.5
T 2019 Apr. 29.82593 TT                                 MPCW
q   7.5637253            (2000.0)            P               Q
z  +0.0005623      Peri.  224.56643     -0.44350107     -0.78470496
 +/-0.0000047      Node   256.42672     +0.89502514     -0.36225598
e   0.9957468      Incl.   26.45580     +0.04729481     -0.50299973
From 80 observations 2016 Nov. 26-2018 Mar. 12, mean residual 0".4.

・ 光度変化

        m1 = -3.8 + 5 logΔ + 20.0 log r

---------------------------------------------------------------------

軌道要素はM.P.E.C. 2018-F152に掲載されたものです。
光度グラフはComet for Windowsで作成したものです。

---------------------------------------------------------------------

Copyright(C) Seiichi Yoshida (comet@aerith.net). All rights reserved.